Volver al catálogo

STARLINK-31361

ActivoComunicacionesVLEO
NORAD 58974·PAYLOAD·🇺🇸 United States

Lanzado Feb 15, 2024 desde Vandenberg Space Force Base

Loading…

Próximos Pases (próximas 24 horas)

TLE

ActualizadoSource: CelesTrak SupGP

Época: Sep 15, 2026, 03:14 UTC

1 58974C 24031K   26258.13520833  .00050515  00000+0  14925-2 0  2587
2 58974  53.1564 134.6076 0001392  75.6979  89.2902 15.34365097    18

Sigue STARLINK-31361 en tiempo real con AllMySat

Download on the App Store